Hourly Data Report for July 06, 2022

TORONTO INTL A
ONTARIO
Current Station Operator: NAVCAN

43°40'36.000" N
79°37'50.000" W
173.40 m
6158731
71624
YYZ

Download Data

Hourly Data (July 2022)
Hourly Data Report for July 6, 2022
TIME
LST
Temp Definition
°C
Dew Point Definition
°C
Rel Hum Definition
%
Precip. Amount Definition
mm

Wind Dir Definition
10's deg

Wind Spd Definition
km/h
Visibility Definition
km
Stn Press Definition
kPa
Hmdx Definition


Wind Chill Definition


Weather Definition


00:00 19.3 17.0 86   30 17 24.1 99.08     LegendNANA
01:00 18.6 17.1 91   32 9 24.1 99.04     Clear
02:00 18.3 17.6 95   28 11 24.1 99.19     LegendNANA
03:00 19.2 17.4 89   32 16 24.1 99.15     LegendNANA
04:00 19.1 17.3 89   30 12 24.1 99.19     Cloudy
05:00 18.9 17.8 93   34 12 24.1 99.27     LegendNANA
06:00 18.6 16.4 87   36 22 24.1 99.34     LegendNANA
07:00 18.7 15.8 83   35 14 24.1 99.36     Mostly Cloudy
08:00 19.2 15.1 77   36 18 24.1 99.41     LegendNANA
09:00 19.9 14.8 73   36 22 24.1 99.44     LegendNANA
10:00 20.2 15.2 73   3 13 24.1 99.49     Mostly Cloudy
11:00 20.6 14.8 69   3 9 24.1 99.52     LegendNANA
12:00 22.6 14.9 61   36 20 24.1 99.54 27   LegendNANA
13:00 22.0 14.3 61   6 13 24.1 99.52 26   Mostly Cloudy
14:00 23.3 14.8 58   35 11 24.1 99.53 27   LegendNANA
15:00 22.7 15.4 63   14 13 24.1 99.53 27   LegendNANA
16:00 21.7 15.1 66   17 14 24.1 99.51 26   Mostly Cloudy
17:00 21.9 14.7 63   17 10 24.1 99.52 26   LegendNANA
18:00 21.4 14.4 64   15 8 24.1 99.53 25   LegendNANA
19:00 20.5 14.1 66   14 10 24.1 99.54     Mostly Cloudy
20:00 20.6 14.0 66   17 5 24.1 99.57     LegendNANA
21:00 19.9 13.3 65   2 14 24.1 99.62     LegendNANA
22:00 18.9 12.9 68   2 11 24.1 99.63     Clear
23:00 17.7 13.8 78   36 15 24.1 99.64     LegendNANA

Notes on Data Quality.

Legend

  • E = Estimated
  • M = Missing
  • NA = Not Available*
  • [empty] = Indicates an unobserved value
Date modified: